Date,TemperatureHighF,TemperatureAvgF,TemperatureLowF,DewpointHighF,DewpointAvgF,DewpointLowF,HumidityHigh,HumidityAvg,HumidityLow,PressureMaxIn,PressureMinIn,WindSpeedMaxMPH,WindSpeedAvgMPH,GustSpeedMaxMPH,PrecipitationSumIn
2013-1-1,18.7,3.8,-10.0,16.0,-1.0,-15.0,88,81,69,30.35,30.11,6,1,10,0.00
2013-1-2,19.7,15.1,12.2,17.0,12.4,10.0,92,89,86,30.12,30.01,7,2,10,0.00
2013-1-3,20.6,14.9,10.0,18.0,10.4,4.0,90,82,64,30.30,30.12,9,2,12,0.00
2013-1-4,34.0,21.7,13.5,20.0,14.9,9.0,88,76,56,30.17,30.06,7,2,10,0.00
2013-1-5,27.3,18.0,9.2,17.0,12.7,6.0,92,80,63,30.14,29.89,9,2,12,0.00
2013-1-6,27.1,17.6,12.0,17.0,11.3,8.0,90,77,54,30.26,30.05,7,2,11,0.00
2013-1-7,37.9,28.6,14.9,26.0,22.1,11.0,89,77,62,30.08,29.92,13,3,19,0.00
2013-1-8,33.3,26.4,13.8,29.0,22.2,10.0,93,84,75,30.01,29.79,12,3,16,0.00
2013-1-9,36.6,30.7,25.7,27.0,22.9,19.0,87,73,55,30.37,29.93,9,3,19,0.00
2013-1-10,38.3,32.9,27.3,33.0,25.3,21.0,96,74,51,30.34,29.77,12,6,16,0.12
2013-1-11,40.2,36.4,33.8,40.0,35.7,33.0,98,97,96,29.75,29.38,11,4,16,0.00
2013-1-12,39.4,16.4,4.6,39.0,10.7,-1.0,98,78,67,30.11,29.38,11,4,23,0.00
2013-1-13,7.7,4.7,2.0,2.0,-0.2,-3.0,82,80,77,30.31,30.09,6,2,10,0.00
2013-1-14,14.9,7.7,2.4,5.0,2.1,-1.0,87,78,60,30.48,30.31,5,1,12,0.00
2013-1-15,29.8,18.7,5.4,18.0,11.6,1.0,89,75,53,30.35,29.88,9,3,15,0.00
2013-1-16,35.5,25.7,12.8,32.0,17.4,-2.0,94,72,46,30.25,29.69,11,4,20,0.02
2013-1-17,18.6,12.1,7.3,11.0,1.9,-5.0,83,64,49,30.44,30.27,7,2,13,0.00
2013-1-18,42.7,28.6,15.7,31.0,22.7,10.0,88,79,60,30.36,29.75,13,3,18,0.00
2013-1-19,37.3,24.7,1.6,30.0,18.7,-6.0,91,78,56,30.22,29.68,17,4,24,0.00
2013-1-20,7.2,1.8,-2.6,-1.0,-6.0,-10.0,78,70,57,30.46,30.24,10,3,18,0.00
2013-1-21,-3.0,-7.2,-11.8,-11.0,-15.5,-20.0,73,67,60,30.43,30.34,10,4,16,0.00
2013-1-22,3.7,-4.6,-13.1,-3.0,-12.8,-19.0,75,68,56,30.51,30.34,8,2,11,0.00
2013-1-23,15.5,5.9,-6.2,7.0,-2.7,-16.0,85,68,51,30.67,30.23,13,4,24,0.00
2013-1-24,10.8,0.4,-8.0,2.0,-8.9,-17.0,68,65,61,30.75,30.27,15,3,16,0.00
2013-1-25,18.2,13.0,4.3,11.0,5.3,-2.0,85,71,59,30.35,30.00,12,4,20,0.00
2013-1-26,23.2,11.8,-0.4,13.0,3.6,-5.0,82,70,61,30.42,30.19,10,3,14,0.00
2013-1-27,32.0,29.0,23.0,30.0,22.9,13.0,95,79,62,30.19,29.83,9,3,15,0.42
2013-1-28,33.8,32.0,30.9,32.0,30.5,29.0,97,94,91,29.92,29.64,8,2,10,0.00
2013-1-29,34.8,31.7,27.6,32.0,29.1,23.0,97,90,81,29.75,29.52,11,4,22,0.00
2013-1-30,27.4,16.9,9.0,23.0,11.4,3.0,84,79,71,29.78,29.65,12,6,23,0.00
2013-1-31,8.6,1.3,-8.0,3.0,-5.5,-16.0,81,73,67,30.33,29.78,13,5,21,0.00
2013-2-1,2.8,-4.4,-12.9,-1.0,-11.2,-18.0,85,73,56,30.40,30.15,7,1,12,0.03
2013-2-2,11.3,5.0,-1.2,6.0,-0.4,-6.0,86,79,63,30.27,30.04,6,2,8,0.00
2013-2-3,13.6,9.7,3.4,7.0,3.9,-1.0,86,77,66,30.14,30.04,5,2,12,0.01
2013-2-4,15.2,9.7,2.8,9.0,2.7,-2.0,87,74,58,30.14,29.82,7,2,11,0.01
2013-2-5,27.5,19.4,3.3,24.0,14.2,-1.0,92,80,60,30.12,29.70,9,3,17,0.03
2013-2-6,22.9,14.5,1.1,20.0,11.3,-3.0,90,86,83,30.15,30.01,5,1,11,0.04
2013-2-7,26.5,25.1,22.5,23.0,21.8,20.0,93,87,80,30.28,30.04,10,4,19,0.00
2013-2-8,25.5,20.8,12.8,20.0,14.1,9.0,88,76,62,30.43,30.27,7,2,12,0.00
2013-2-9,30.6,27.3,22.2,27.0,24.3,19.0,93,88,85,30.27,29.97,15,6,22,0.00
2013-2-10,33.3,30.1,27.0,32.0,28.6,25.0,97,93,88,29.97,29.28,9,3,15,0.49
2013-2-11,30.0,24.8,18.6,29.0,20.9,14.0,96,85,76,30.06,29.33,16,5,18,0.01
2013-2-12,37.3,24.3,13.9,24.0,18.4,11.0,89,79,59,30.07,29.83,9,2,16,0.00
2013-2-13,39.5,28.2,19.5,32.0,24.0,16.0,95,85,64,29.83,29.58,6,1,9,0.10
2013-2-14,32.2,25.5,15.0,31.0,19.1,4.0,96,78,50,30.19,29.59,10,3,19,0.06
2013-2-15,17.9,11.1,5.6,5.0,2.1,0.0,79,68,52,30.34,30.19,11,3,16,0.00
2013-2-16,18.3,8.1,-1.1,7.0,1.4,-5.0,84,75,59,30.31,30.18,4,1,8,0.00
2013-2-17,29.2,19.4,2.6,21.0,12.5,-2.0,85,75,66,30.19,29.70,15,6,22,0.00
2013-2-18,32.9,24.1,9.7,30.0,19.0,4.0,89,81,75,29.80,29.55,12,4,19,0.00
2013-2-19,9.6,5.6,1.0,4.0,-3.6,-7.0,80,67,57,30.42,29.81,17,7,24,0.00
2013-2-20,16.1,5.5,-3.8,3.0,-2.2,-9.0,80,71,56,30.54,30.43,7,1,10,0.00
2013-2-21,21.5,13.4,2.7,12.0,5.7,-2.0,84,72,62,30.52,30.16,6,1,10,0.00
2013-2-22,26.8,22.8,19.0,22.0,19.1,12.0,91,85,70,30.15,29.89,9,2,12,0.12
2013-2-23,32.6,25.0,20.8,24.0,21.0,18.0,91,84,70,29.98,29.86,5,1,8,0.00
2013-2-24,34.2,23.9,11.6,23.0,17.5,8.0,89,77,61,30.14,29.99,6,1,9,0.00
2013-2-25,37.1,27.4,16.8,26.0,21.8,14.0,89,80,63,30.14,30.06,3,0,7,0.00
2013-2-26,36.0,27.0,15.0,27.0,21.9,12.0,93,81,70,30.09,29.90,9,3,15,0.00
2013-2-27,37.1,30.6,26.3,26.0,24.5,22.0,85,78,64,30.04,29.88,15,5,20,0.00
2013-2-28,29.3,27.3,22.9,23.0,20.2,16.0,82,75,69,30.25,30.04,10,4,17,0.00
2013-3-1,29.9,23.9,15.4,18.0,15.3,10.0,80,70,58,30.38,30.25,8,3,16,0.00
2013-3-2,30.5,19.4,4.9,13.0,9.1,0.0,86,66,43,30.39,30.22,5,1,7,0.00
2013-3-3,32.6,23.5,13.5,13.0,8.9,6.0,78,56,37,30.21,30.03,10,2,14,0.00
2013-3-4,25.8,24.7,23.6,22.0,15.5,8.0,92,70,48,30.07,29.98,11,3,17,0.08
2013-3-5,28.6,24.6,19.3,24.0,21.8,16.0,93,89,81,30.33,30.01,9,3,14,0.32
2013-3-6,29.0,20.7,10.2,19.0,15.3,6.0,90,80,65,30.45,30.33,10,2,13,0.00
2013-3-7,31.9,19.9,5.1,19.0,12.2,1.0,88,73,58,30.44,30.34,12,2,13,0.00
2013-3-8,38.2,29.8,19.9,30.0,23.6,16.0,88,78,69,30.38,30.12,9,5,15,0.00
2013-3-9,36.2,34.8,32.4,35.0,33.2,28.0,96,93,77,30.12,29.72,13,4,16,0.37
2013-3-10,35.2,32.8,29.6,34.0,29.3,25.0,96,87,81,29.96,29.79,13,7,24,0.01
2013-3-11,29.6,27.4,23.8,25.0,22.7,18.0,87,82,73,29.87,29.76,12,5,17,0.00
2013-3-12,28.1,24.1,20.3,18.0,15.2,10.0,85,70,50,30.21,29.85,14,4,22,0.00
2013-3-13,34.2,22.8,13.2,16.0,12.0,9.0,87,66,36,30.41,30.21,7,2,11,0.00
2013-3-14,38.7,29.3,22.3,29.0,23.8,17.0,93,80,66,30.30,30.04,7,3,12,0.10
2013-3-15,33.8,30.6,22.8,30.0,27.1,21.0,93,87,79,30.04,29.86,7,2,16,0.17
2013-3-16,27.0,20.2,12.8,21.0,12.6,4.0,92,73,52,30.27,29.92,9,4,15,0.00
2013-3-17,26.3,16.9,4.4,17.0,5.8,-2.0,74,62,49,30.32,29.95,10,4,16,0.00
2013-3-18,27.9,21.4,12.5,26.0,17.1,7.0,94,83,73,29.94,29.63,14,6,22,0.16
2013-3-19,22.8,13.3,6.4,7.0,2.9,-3.0,80,65,45,30.22,29.83,14,5,18,0.00
2013-3-20,20.7,12.7,4.7,4.0,0.3,-4.0,69,58,48,30.25,30.16,13,4,26,0.00
2013-3-21,27.4,14.5,0.0,10.0,3.6,-6.0,80,63,47,30.18,30.09,9,1,9,0.00
2013-3-22,38.0,21.7,4.2,17.0,7.8,-99.9,87,61,38,30.14,30.08,4,-21,7,0.00
2013-3-23,38.6,28.7,13.6,21.0,16.6,9.0,85,62,43,30.18,30.10,4,1,7,0.00
2013-3-24,31.8,29.2,26.7,24.0,20.9,19.0,78,71,65,30.13,30.00,12,3,16,0.00
2013-3-25,37.6,29.0,20.9,21.0,18.0,14.0,78,65,46,30.23,30.06,11,4,17,0.00
2013-3-26,39.1,33.2,27.9,23.0,21.0,19.0,73,62,46,30.31,30.23,7,1,9,0.00
2013-3-27,43.7,34.1,23.4,22.0,19.3,16.0,81,57,36,30.36,30.31,5,1,9,0.00
2013-3-28,42.9,32.7,20.0,24.0,20.1,15.0,84,62,38,30.38,30.30,6,1,10,0.00
2013-3-29,47.7,38.6,26.5,34.0,28.6,21.0,81,68,54,30.32,30.10,11,4,16,0.00
2013-3-30,52.7,42.9,36.5,43.0,36.9,32.0,96,80,61,30.10,29.84,8,3,17,0.44
2013-3-31,37.9,33.6,24.3,32.0,22.7,13.0,92,67,37,30.09,29.79,14,5,26,0.00
2013-4-1,33.5,25.0,16.7,17.0,12.8,10.0,76,61,40,30.28,30.09,10,4,18,0.00
2013-4-2,36.0,27.0,18.0,16.0,14.1,12.0,81,60,39,30.39,30.27,10,2,14,0.00
2013-4-3,43.3,31.8,16.6,31.0,20.8,13.0,85,66,44,30.44,30.09,16,4,21,0.00
2013-4-4,48.3,42.2,34.3,34.0,27.9,22.0,78,58,43,30.16,30.01,12,4,23,0.00
2013-4-5,41.5,33.4,25.3,32.0,23.6,17.0,94,69,41,30.26,29.93,9,3,18,0.02
2013-4-6,50.3,40.5,34.8,40.0,33.6,28.0,93,77,59,29.93,29.51,13,6,22,0.06
2013-4-7,46.1,39.9,34.8,36.0,33.5,30.0,92,78,67,29.95,29.74,8,2,13,0.07
2013-4-8,44.1,40.2,38.2,40.0,38.3,36.0,96,92,86,30.05,29.69,13,2,13,0.53
2013-4-9,42.5,37.1,32.9,36.0,32.1,26.0,94,83,65,30.18,29.98,13,5,21,0.22
2013-4-10,39.4,34.0,28.9,28.0,25.6,23.0,94,73,56,30.21,29.93,15,4,20,0.10
2013-4-11,35.8,32.6,29.6,32.0,29.3,23.0,95,88,63,29.93,29.70,10,4,24,0.49
2013-4-12,35.9,30.4,26.8,30.0,26.8,25.0,95,87,74,29.86,29.69,11,3,13,0.04
2013-4-13,35.9,31.4,27.8,29.0,25.4,24.0,92,79,65,29.99,29.84,7,2,13,0.00
2013-4-14,36.0,31.0,27.4,35.0,27.8,23.0,95,88,77,29.98,29.51,11,3,22,0.35
2013-4-15,38.2,34.7,31.3,35.0,27.5,-99.9,95,77,69,29.98,29.56,13,-7,23,0.00
2013-4-16,44.6,37.6,32.4,30.0,28.0,26.0,82,69,53,30.34,29.98,8,2,15,0.00
2013-4-17,40.5,36.2,33.4,35.0,30.3,26.0,95,80,70,30.34,29.92,11,2,17,0.12
2013-4-18,33.8,31.9,30.5,33.0,30.7,29.0,97,95,91,29.93,29.49,12,6,26,0.73
2013-4-19,36.1,31.4,28.5,30.0,26.7,20.0,97,83,62,30.00,29.47,13,6,26,0.02
2013-4-20,41.7,31.7,20.2,19.0,13.7,7.0,72,50,26,30.33,30.01,5,1,10,0.00
2013-4-21,47.8,38.9,32.0,45.0,34.3,17.0,97,84,53,30.34,30.04,17,5,23,0.21
2013-4-22,42.4,36.5,31.6,38.0,33.0,31.0,96,87,66,30.22,30.11,8,3,16,0.41
2013-4-23,41.5,34.7,29.4,31.0,26.6,20.0,97,75,45,30.16,30.07,8,4,14,0.06
2013-4-24,49.7,36.4,24.8,34.0,27.8,22.0,90,73,47,30.09,29.91,18,3,22,0.00
2013-4-25,49.5,40.8,31.5,33.0,29.2,26.0,88,66,40,30.21,29.98,7,3,12,0.00
2013-4-26,71.1,56.8,43.7,45.0,38.6,29.0,71,53,31,30.11,29.98,16,4,21,0.00
2013-4-27,73.2,58.3,38.8,49.0,40.9,35.0,87,56,27,30.11,29.88,11,3,14,0.00
2013-4-28,78.7,62.8,51.0,54.0,48.2,44.0,91,62,34,29.88,29.61,16,5,21,0.10
2013-4-29,73.1,61.1,47.8,57.0,48.3,39.0,95,65,40,29.78,29.54,10,3,13,0.00
2013-4-30,71.7,64.3,56.8,59.0,46.9,30.0,83,56,28,29.91,29.39,10,4,18,0.00
2013-5-1,56.4,40.0,33.7,40.0,34.5,32.0,94,83,46,30.48,29.93,12,3,17,0.29
2013-5-2,43.5,37.3,32.5,32.0,29.6,27.0,95,75,55,30.55,30.43,11,4,20,0.15
2013-5-3,37.1,33.2,30.6,32.0,29.5,26.0,93,87,66,30.42,30.17,11,5,19,0.17
2013-5-4,49.7,39.1,32.2,43.0,36.2,30.0,95,89,77,30.19,30.13,8,4,16,0.14
2013-5-5,64.8,48.9,37.0,48.0,41.3,35.0,91,77,54,30.18,30.07,7,3,10,0.00
2013-5-6,74.9,59.3,42.7,50.0,45.4,39.0,90,63,34,30.10,29.99,7,1,9,0.00
2013-5-7,77.4,64.6,49.1,51.0,45.6,39.0,89,55,25,30.04,29.93,9,2,13,0.00
2013-5-8,76.2,63.4,52.8,56.0,50.2,44.0,91,66,33,29.98,29.91,11,1,12,0.11
2013-5-9,57.9,51.9,43.3,55.0,46.6,29.0,93,83,57,30.09,29.91,13,5,22,0.04
2013-5-10,65.9,50.6,35.5,42.0,28.9,22.0,78,48,20,30.11,29.86,8,3,12,0.00
2013-5-11,55.8,45.5,39.3,40.0,27.3,21.0,67,50,34,30.17,29.85,17,7,28,0.00
2013-5-12,56.4,44.9,33.1,29.0,22.2,18.0,67,43,23,30.22,30.09,11,3,16,0.00
2013-5-13,68.2,52.5,33.6,47.0,34.0,26.0,81,52,27,30.11,29.64,14,4,23,0.01
2013-5-14,95.1,72.2,48.4,54.0,45.8,29.0,86,45,14,29.67,29.41,14,3,26,0.00
2013-5-15,77.7,65.8,52.0,49.0,45.9,43.0,74,50,31,29.87,29.61,13,3,23,0.00
2013-5-16,81.5,69.1,51.3,50.0,43.2,31.0,82,43,24,29.88,29.79,8,2,16,0.00
2013-5-17,66.2,57.6,53.6,54.0,49.2,32.0,93,76,28,29.97,29.86,12,3,14,0.13
2013-5-18,79.2,63.7,53.0,66.0,58.3,52.0,99,84,61,29.99,29.77,14,3,19,0.74
2013-5-19,80.6,68.5,62.5,66.0,63.2,60.0,96,84,60,29.78,29.52,11,3,30,1.30
2013-5-20,70.2,64.9,60.4,63.0,60.1,58.0,97,85,65,29.55,29.46,13,4,20,0.31
2013-5-21,61.7,56.7,48.6,59.0,54.9,48.0,97,94,89,29.68,29.49,6,2,11,0.04
2013-5-22,52.8,49.2,45.4,49.0,46.8,44.0,96,91,74,29.96,29.67,11,4,15,0.00
2013-5-23,63.9,52.8,42.9,44.0,35.6,29.0,81,55,31,30.34,29.99,11,4,18,0.00
2013-5-24,67.4,54.6,37.2,52.0,38.4,30.0,89,57,37,30.39,30.18,9,2,19,0.07
2013-5-25,61.7,56.6,51.5,52.0,47.6,43.0,94,73,53,30.26,30.21,18,5,22,0.12
2013-5-26,58.9,55.7,51.1,47.0,42.6,36.0,75,62,43,30.22,30.04,12,4,23,0.00
2013-5-27,59.3,56.4,54.3,55.0,50.2,46.0,93,80,69,30.04,29.82,14,3,15,0.04
2013-5-28,58.9,55.5,52.2,56.0,53.5,51.0,95,92,89,29.82,29.70,7,1,12,0.00
2013-5-29,74.2,64.5,56.5,70.0,61.1,55.0,96,89,75,29.81,29.62,10,3,16,0.56
2013-5-30,76.2,68.7,63.0,65.0,63.3,62.0,97,84,65,29.65,29.48,13,6,23,0.35
2013-5-31,77.1,67.3,60.3,63.0,58.6,52.0,94,76,42,29.52,29.45,27,6,29,0.15
2013-6-1,72.3,60.1,50.4,58.0,53.0,43.0,93,78,57,29.89,29.51,10,3,20,0.00
2013-6-2,66.3,54.8,47.2,46.0,41.7,39.0,85,63,38,30.06,29.90,13,3,19,0.00
2013-6-3,68.5,58.3,44.7,50.0,45.2,41.0,96,66,38,30.06,29.93,5,1,10,0.00
2013-6-4,62.4,58.5,53.6,52.0,48.4,41.0,93,70,52,30.08,29.98,12,4,16,0.00
2013-6-5,56.8,54.6,53.3,56.0,53.2,52.0,97,95,93,30.04,29.93,7,2,10,0.04
2013-6-6,56.6,53.2,49.4,53.0,51.3,49.0,98,93,85,30.02,29.94,5,2,10,0.00
2013-6-7,64.6,57.6,53.2,54.0,52.3,51.0,94,83,65,30.04,29.90,5,1,7,0.00
2013-6-8,70.4,63.3,54.4,57.0,53.6,52.0,91,72,56,29.91,29.86,8,2,14,0.00
2013-6-9,66.4,59.3,55.3,62.0,56.1,52.0,95,89,72,29.88,29.75,11,3,17,0.38
2013-6-10,75.4,65.1,57.5,64.0,60.4,56.0,97,86,62,29.83,29.78,4,0,8,0.00
2013-6-11,76.4,65.9,54.8,68.0,62.1,53.0,98,87,72,29.85,29.77,4,0,7,0.00
2013-6-12,74.7,66.7,62.1,67.0,62.4,53.0,98,86,61,29.87,29.68,10,2,18,0.59
2013-6-13,76.7,67.2,57.6,57.0,53.8,50.0,78,63,47,30.05,29.88,12,3,12,0.00
2013-6-14,77.5,68.0,54.8,61.0,56.7,51.0,88,68,54,30.06,29.84,14,4,19,0.00
2013-6-15,74.5,67.7,59.7,70.0,64.1,58.0,96,88,73,29.89,29.79,6,1,15,0.69
2013-6-16,83.9,68.7,55.2,60.0,54.5,46.0,98,67,28,29.88,29.80,11,1,24,0.01
2013-6-17,78.3,68.5,57.3,61.0,56.9,54.0,93,69,46,29.98,29.82,7,2,13,0.00
2013-6-18,74.7,64.8,54.2,60.0,54.6,49.0,84,71,48,30.05,29.98,10,2,10,0.00
2013-6-19,82.5,70.8,57.1,62.0,58.4,53.0,87,66,47,30.04,29.91,11,3,14,0.00
2013-6-20,86.5,77.6,69.3,69.0,64.3,60.0,77,64,49,29.96,29.84,12,4,15,0.00
2013-6-21,79.0,71.1,64.0,68.0,65.2,62.0,97,83,63,30.05,29.68,17,3,37,3.29
2013-6-22,81.2,71.2,64.6,71.0,66.9,63.0,98,87,68,29.96,29.79,7,2,12,0.39
2013-6-23,81.8,73.4,65.6,70.0,67.3,64.0,95,82,59,29.83,29.64,11,4,24,0.33
2013-6-24,81.2,71.4,61.8,71.0,65.5,60.0,98,82,64,29.86,29.76,9,2,15,0.00
2013-6-25,83.6,74.5,64.8,73.0,67.7,63.0,93,80,63,29.80,29.66,9,3,16,0.00
2013-6-26,86.5,77.0,71.6,76.0,71.1,65.0,98,83,58,29.75,29.61,9,2,13,0.38
2013-6-27,84.5,75.5,65.7,67.0,61.8,54.0,95,66,36,29.75,29.71,16,3,20,0.00
2013-6-28,75.7,68.7,62.5,65.0,61.2,58.0,93,77,61,29.74,29.69,13,4,21,0.18
2013-6-29,75.0,67.2,61.5,63.0,59.0,52.0,97,77,48,29.94,29.70,8,3,15,0.69
2013-6-30,80.9,68.0,55.0,60.0,54.2,49.0,89,65,37,30.08,29.95,8,1,19,0.00
2013-7-1,82.5,71.4,58.2,61.0,56.8,52.0,91,63,38,30.15,30.07,5,1,9,0.00
2013-7-2,81.6,69.9,56.1,58.0,54.5,50.0,83,60,40,30.12,30.01,6,1,9,0.00
2013-7-3,83.3,70.2,54.4,61.0,53.1,44.0,92,60,26,30.03,29.92,5,1,11,0.00
2013-7-4,86.8,75.3,62.5,65.0,58.8,55.0,78,58,36,29.93,29.82,9,3,14,0.00
2013-7-5,85.5,78.1,68.7,65.0,61.6,58.0,70,57,47,29.86,29.75,12,5,23,0.00
2013-7-6,87.5,78.6,72.2,73.0,64.4,61.0,69,62,49,29.83,29.75,9,4,14,0.00
2013-7-7,88.8,79.6,70.8,75.0,68.9,66.0,95,71,54,29.82,29.74,9,2,15,0.05
2013-7-8,84.4,72.0,63.6,71.0,67.3,63.0,97,86,61,29.95,29.82,6,2,9,0.00
2013-7-9,83.4,76.4,69.6,72.0,69.4,65.0,98,79,64,29.91,29.71,18,3,19,0.83
2013-7-10,78.3,69.6,61.1,64.0,57.7,55.0,91,68,44,30.00,29.85,13,3,17,0.00
2013-7-11,82.5,70.9,57.5,64.0,58.8,56.0,96,69,43,30.07,29.94,8,2,13,0.00
2013-7-12,86.1,76.3,66.8,66.0,61.0,57.0,77,60,46,29.98,29.86,16,6,21,0.00
2013-7-13,77.5,71.4,63.4,70.0,63.7,58.0,96,78,57,30.04,29.89,14,5,19,0.77
2013-7-14,83.7,75.3,69.6,68.0,65.2,63.0,86,72,54,30.14,30.02,9,3,16,0.00
2013-7-15,86.1,76.8,66.6,71.0,66.9,64.0,91,73,50,30.19,30.11,8,2,12,0.00
2013-7-16,90.5,81.6,73.9,74.0,71.4,70.0,90,72,51,30.15,30.10,9,2,12,0.00
2013-7-17,89.3,80.4,69.5,75.0,71.1,68.0,97,75,54,30.19,30.05,7,1,10,0.01
2013-7-18,90.9,83.2,74.8,74.0,71.5,70.0,87,69,51,30.05,29.69,10,3,21,0.02
2013-7-19,83.4,77.5,66.7,72.0,65.5,60.0,86,68,48,29.83,29.64,10,2,15,0.13
2013-7-20,79.3,71.2,62.4,64.0,60.6,57.0,93,71,50,29.92,29.80,7,2,16,0.05
2013-7-21,78.9,67.8,58.4,68.0,59.9,48.0,95,76,62,29.92,29.77,7,2,12,0.14
2013-7-22,85.4,73.1,64.6,73.0,64.5,55.0,93,76,50,29.79,29.61,11,4,17,0.02
2013-7-23,74.7,65.6,59.0,56.0,54.0,51.0,86,67,47,29.99,29.80,9,3,15,0.00
2013-7-24,75.3,64.9,54.1,60.0,55.7,51.0,90,73,55,30.05,29.94,9,1,9,0.00
2013-7-25,79.1,70.5,60.5,68.0,61.8,58.0,93,75,53,29.95,29.86,6,1,11,0.13
2013-7-26,69.8,63.6,53.6,65.0,56.2,46.0,89,77,67,30.05,29.84,12,4,22,0.00
2013-7-27,59.5,54.3,51.5,53.0,48.5,45.0,89,81,67,30.05,29.91,13,4,20,0.06
2013-7-28,70.8,58.6,50.7,55.0,50.4,46.0,90,75,55,30.05,29.94,7,3,12,0.00
2013-7-29,75.4,64.1,50.1,58.0,53.9,48.0,97,72,50,30.11,30.04,8,2,13,0.06
2013-7-30,71.3,66.3,62.4,65.0,61.8,58.0,94,86,70,30.07,30.01,9,1,13,0.02
2013-7-31,78.2,68.4,60.1,66.0,59.8,51.0,98,76,43,30.03,29.94,11,1,15,0.07
2013-8-1,78.5,65.3,51.0,61.0,54.8,49.0,97,72,43,30.00,29.83,7,1,12,0.04
2013-8-2,74.3,65.8,55.8,58.0,54.9,49.0,94,70,42,30.01,29.81,8,2,12,0.00
2013-8-3,75.6,63.6,51.5,58.0,52.3,49.0,96,70,42,30.16,30.01,7,1,12,0.07
2013-8-4,73.9,63.2,52.3,58.0,53.7,49.0,91,73,49,30.21,29.99,7,1,11,0.00
2013-8-5,76.3,67.7,59.9,68.0,63.3,56.0,96,86,72,29.99,29.75,10,2,11,0.43
2013-8-6,82.5,67.7,55.8,69.0,61.3,54.0,96,81,58,29.80,29.64,11,2,24,0.24
2013-8-7,74.2,65.0,55.8,61.0,55.8,50.0,97,75,45,30.00,29.73,9,3,15,0.00
2013-8-8,74.5,63.5,52.1,61.0,55.8,50.0,95,78,53,30.02,29.95,6,1,13,0.00
2013-8-9,73.5,65.2,55.8,61.0,54.9,51.0,97,72,46,30.09,29.96,12,2,15,0.05
2013-8-10,74.4,64.6,53.8,62.0,54.7,51.0,94,72,48,30.15,30.06,5,1,9,0.00
2013-8-11,78.5,67.9,59.7,65.0,61.0,56.0,93,79,57,30.07,29.96,4,1,7,0.04
2013-8-12,77.4,67.7,60.2,63.0,58.1,54.0,98,74,45,30.04,29.95,11,2,15,0.00
2013-8-13,73.4,62.7,51.5,56.0,50.7,46.0,95,68,40,30.16,30.04,8,1,13,0.06
2013-8-14,75.0,62.7,50.1,59.0,52.2,48.0,93,71,45,30.17,30.07,5,0,9,0.00
2013-8-15,74.8,62.7,50.0,64.0,56.1,48.0,96,80,58,30.10,30.05,6,0,8,0.06
2013-8-16,78.4,67.5,56.6,61.0,57.0,54.0,95,71,45,30.16,30.09,6,1,13,0.00
2013-8-17,80.3,66.8,53.7,60.0,55.8,52.0,95,71,44,30.18,30.07,10,2,16,0.06
2013-8-18,80.8,70.4,60.7,62.0,58.1,55.0,82,67,49,30.11,29.96,11,2,15,0.00
2013-8-19,84.4,73.4,64.5,70.0,64.3,59.0,84,74,58,29.98,29.85,8,3,13,0.03
2013-8-20,86.8,77.8,68.8,73.0,69.3,64.0,87,75,63,29.87,29.80,13,4,15,0.00
2013-8-21,84.5,77.7,70.5,77.0,71.8,67.0,91,82,72,29.94,29.78,7,2,12,0.06
2013-8-22,83.0,73.0,63.8,66.0,56.4,51.0,86,59,34,30.08,29.93,7,2,16,0.01
2013-8-23,84.2,72.2,57.9,67.0,58.8,50.0,80,64,49,30.11,29.99,10,2,13,0.02
2013-8-24,87.3,77.3,68.7,73.0,68.5,63.0,83,75,63,30.04,29.89,18,6,24,0.00
2013-8-25,93.5,84.1,77.6,76.0,73.0,70.0,80,70,54,29.95,29.87,16,5,18,0.00
2013-8-26,93.7,84.7,76.6,77.0,74.7,73.0,88,73,57,29.92,29.76,12,3,17,0.02
2013-8-27,91.5,82.3,74.2,79.0,74.5,71.0,89,77,62,29.85,29.72,9,2,10,0.02
2013-8-28,90.0,78.4,68.5,74.0,69.3,64.0,96,76,47,29.95,29.85,5,1,10,0.00
2013-8-29,91.4,79.5,71.5,77.0,72.3,70.0,98,80,54,29.95,29.79,10,2,12,0.10
2013-8-30,83.5,75.5,69.5,72.0,67.1,63.0,92,76,56,29.87,29.75,9,2,18,0.00
2013-8-31,85.4,72.8,62.3,70.0,65.2,61.0,95,78,58,29.85,29.66,8,1,17,0.08
2013-9-1,71.2,67.8,61.0,64.0,60.1,54.0,88,77,68,29.93,29.67,13,4,15,0.00
2013-9-2,65.5,58.0,50.1,55.0,51.3,48.0,92,79,64,30.06,29.93,7,2,12,0.00
2013-9-3,75.9,59.9,45.1,59.0,52.5,43.0,97,79,49,30.09,29.98,6,1,8,0.06
2013-9-4,83.5,68.9,54.0,66.0,59.8,52.0,97,75,52,30.11,30.00,5,1,10,0.00
2013-9-5,81.2,69.8,57.2,65.0,58.9,51.0,83,69,52,30.19,30.07,7,2,11,0.03
2013-9-6,88.1,77.2,68.0,69.0,65.8,63.0,92,70,44,30.06,29.82,9,3,17,0.00
2013-9-7,91.8,78.3,66.2,71.0,66.7,62.0,92,69,42,29.96,29.79,8,2,15,0.05
2013-9-8,74.7,68.5,62.5,65.0,59.4,54.0,84,73,61,30.00,29.85,7,3,15,0.00
2013-9-9,90.3,76.3,67.8,74.0,69.0,64.0,94,79,54,29.85,29.57,11,4,17,0.05
2013-9-10,77.6,72.4,66.4,72.0,65.7,60.0,95,80,65,29.93,29.69,6,1,9,0.04
2013-9-11,81.2,69.8,58.6,65.0,57.8,50.0,97,69,34,30.00,29.94,11,2,18,0.03
2013-9-12,71.0,62.9,54.7,55.0,50.2,45.0,88,65,41,30.20,30.00,11,3,17,0.00
2013-9-13,68.2,56.2,43.2,49.0,44.9,40.0,94,68,41,30.27,30.08,6,1,8,0.05
2013-9-14,70.6,58.8,49.3,59.0,49.5,44.0,96,73,46,30.08,29.88,7,2,13,0.39
2013-9-15,62.7,57.0,48.6,57.0,53.3,44.0,97,88,75,30.30,29.87,8,3,16,0.16
2013-9-16,66.0,52.6,41.4,44.0,40.6,37.0,92,68,35,30.41,30.26,8,2,12,0.00